Location: Newark
(51.3318°N, 0.0053°E)
Time: 08:03:17
(UTC+00:00)

ONEWEB-0421 - Pass Details

Date: 01 June 2024
Orbit: 1188 x 1191 km, 87.9° (Epoch: 16 June)

Event Time Altitude Azimuth Distance (km) Brightness Sun altitude
Rises 02:12:56 0° 0° (N) 4,098 ? -10.8°
Reaches altitude 10° 02:15:49 10° 8° (N) 3,131 ? -10.6°
Maximum altitude 02:22:37 41° 77° (ENE) 1,673 ? -10.0°
Drops below altitude 10° 02:29:21 10° 146° (SE) 3,113 ? -9.4°
Sets 02:32:11 0° 153° (SSE) 4,072 ? -9.1°
